DW9064 Weather Reports


Display with metric or nautical units.
time (UTC)temp
F
wind
direction
speed
MPH
gust
MPH
rain 1hr
in
rain 24hr
in
rain mn
in
humidity
%
barometer
mb
20260904115345 48 2 2.0 4.0 0.00 0.08 0.00 90 1011.2
20260904114445 48 41 0.0 4.0 0.00 0.09 0.00 91 1011.2
20260904113545 48 15 1.0 4.0 0.00 0.09 0.00 91 1011.1
20260904111745 48 58 1.0 3.0 0.00 0.09 0.00 91 1011.1
20260904110845 48 41 2.0 4.0 0.00 0.09 0.00 91 1010.9
20260904105945 47 16 2.0 4.0 0.00 0.09 0.00 91 1010.9
20260904104145 48 27 3.0 4.0 0.00 0.09 0.00 90 1011.0
20260904103245 48 29 1.0 4.0 0.00 0.09 0.00 90 1010.6
20260904102345 48 15 1.0 4.0 0.00 0.09 0.00 90 1010.5
20260904101445 48 355 2.0 5.0 0.00 0.09 0.00 90 1010.4
20260904100545 47 19 2.0 5.0 0.00 0.09 0.00 90 1010.4
20260904095645 47 14 4.0 5.0 0.00 0.09 0.00 90 1010.3
20260904094745 47 5 2.0 4.0 0.00 0.09 0.00 90 1010.7
20260904093845 47 350 2.0 6.0 0.00 0.09 0.00 90 1010.6
20260904092945 47 346 3.0 5.0 0.00 0.09 0.00 90 1010.4
20260904092045 46 16 2.0 4.0 0.00 0.09 0.00 89 1010.6
20260904091145 46 340 3.0 6.0 0.00 0.09 0.00 89 1010.4
20260904085345 46 343 2.0 5.0 0.00 0.09 0.00 89 1010.2
20260904083545 47 5 4.0 6.0 0.00 0.09 0.00 89 1010.3
20260904082645 47 348 4.0 6.0 0.00 0.09 0.00 89 1010.6
20260904080845 47 322 4.0 8.0 0.00 0.09 0.00 88 1010.4
20260904075945 47 324 4.0 8.0 0.00 0.09 0.00 87 1010.2
20260904074145 48 333 4.0 9.0 0.00 0.09 0.00 87 1010.4
20260904073245 48 354 5.0 7.0 0.00 0.09 0.00 86 1010.2
20260904072345 48 3 4.0 6.0 0.00 0.09 0.00 88 1010.5
20260904071445 47 12 2.0 6.0 0.00 0.09 0.00 88 1010.5
20260904070545 47 326 3.0 8.0 0.00 0.09 0.00 89 1010.4
20260904065645 47 317 5.0 7.0 0.00 0.09 0.09 88 1010.6
20260904063845 48 323 5.0 8.0 0.00 0.09 0.09 86 1010.2
20260904062945 49 326 4.0 7.0 0.00 0.09 0.09 84 1010.6
20260904062045 49 338 4.0 7.0 0.00 0.09 0.09 82 1010.4
20260904061145 50 336 4.0 8.0 0.00 0.12 0.09 82 1010.3
20260904060244 50 337 4.0 8.0 0.00 0.12 0.09 83 1010.3
20260904054127 50 10 2.0 5.0 0.00 0.12 0.09 86 1010.2
20260904053227 49 356 2.0 7.0 0.00 0.12 0.09 87 1010.3
20260904051427 49 330 4.0 7.0 0.00 0.12 0.09 89 1010.4
20260904043827 49 314 5.0 8.0 0.00 0.12 0.09 88 1010.1
20260904042927 49 314 5.0 8.0 0.00 0.12 0.09 88 1010.1
20260904042027 49 320 7.0 8.0 0.00 0.12 0.09 87 1010.3
20260904041127 50 314 6.0 8.0 0.00 0.12 0.09 85 1010.0
20260904040227 50 319 5.0 8.0 0.00 0.12 0.09 84 1009.9
20260904035327 51 323 7.0 8.0 0.00 0.12 0.09 84 1009.9
20260904034427 51 318 6.0 8.0 0.00 0.12 0.09 83 1010.0
20260904033527 52 318 7.0 9.0 0.00 0.12 0.09 82 1009.9
20260904032627 53 314 6.0 9.0 0.00 0.12 0.09 81 1009.8
20260904031727 54 318 6.0 9.0 0.00 0.12 0.09 81 1009.7
20260904030827 54 321 7.0 8.0 0.00 0.12 0.09 78 1009.7
20260904025927 55 316 7.0 9.0 0.00 0.12 0.09 75 1009.6
20260904025026 56 314 6.0 8.0 0.00 0.12 0.09 74 1009.5
20260904023226 57 318 7.0 8.0 0.00 0.12 0.09 74 1009.4
20260904022326 57 315 7.0 8.0 0.00 0.12 0.09 74 1009.5
20260904021427 58 314 4.0 7.0 0.00 0.12 0.09 74 1009.6
20260904020527 58 314 5.0 7.0 0.00 0.12 0.09 70 1009.5
20260904015626 59 320 6.0 8.0 0.00 0.12 0.09 70 1009.4
20260904014726 60 316 6.0 7.0 0.00 0.12 0.09 68 1009.4
20260904013827 60 322 5.0 7.0 0.00 0.12 0.09 65 1009.4
20260904012926 61 318 5.0 6.0 0.00 0.12 0.09 63 1009.4
20260904012026 62 321 4.0 6.0 0.00 0.12 0.09 58 1009.4
20260904011126 63 336 4.0 6.0 0.00 0.12 0.09 51 1009.5
20260904010226 64 322 4.0 6.0 0.00 0.12 0.09 47 1009.5
20260904005326 66 315 4.0 5.0 0.00 0.12 0.09 43 1009.4
20260904004426 67 283 2.0 8.0 0.00 0.12 0.09 35 1009.5
20260904002627 68 206 4.0 13.0 0.00 0.12 0.09 25 1009.5
20260904001726 70 212 2.0 7.0 0.00 0.12 0.09 27 1009.5
20260904000826 69 325 0.0 7.0 0.00 0.12 0.09 32 1009.4
20260903235926 68 292 1.0 10.0 0.00 0.12 0.09 32 1009.6
20260903235026 69 224 5.0 12.0 0.00 0.12 0.09 23 1009.6
20260903231426 70 172 4.0 11.0 0.00 0.12 0.09 25 1009.8
20260903230526 69 211 2.0 14.0 0.00 0.12 0.09 26 1009.9
20260903224726 70 214 1.0 12.0 0.00 0.12 0.09 27 1009.9
20260903223826 69 209 2.0 13.0 0.00 0.12 0.09 27 1009.8
20260903222926 69 204 8.0 13.0 0.00 0.12 0.09 25 1010.0
20260903222026 69 196 2.0 12.0 0.00 0.12 0.09 30 1010.0
20260903221126 67 175 1.0 5.0 0.00 0.12 0.09 32 1010.1
20260903220226 67 170 2.0 6.0 0.00 0.12 0.09 33 1010.2
20260903215326 68 55 2.0 5.0 0.00 0.12 0.09 38 1010.2
20260903214426 67 130 3.0 6.0 0.00 0.12 0.09 39 1010.3
20260903213526 67 142 3.0 11.0 0.00 0.12 0.09 38 1010.4
20260903211727 65 164 0.0 8.0 0.00 0.12 0.09 45 1010.6
20260903210826 65 194 3.0 7.0 0.00 0.12 0.09 45 1010.5
20260903205927 65 176 4.0 11.0 0.00 0.12 0.09 45 1010.6
20260903205026 63 165 4.0 8.0 0.00 0.12 0.09 54 1010.7
20260903204126 63 187 4.0 8.0 0.00 0.12 0.09 59 1010.8
20260903203226 62 185 4.0 8.0 0.00 0.12 0.09 60 1010.9
20260903202327 62 196 4.0 8.0 0.00 0.12 0.09 61 1010.9
20260903201426 62 210 4.0 8.0 0.00 0.12 0.09 59 1010.9
20260903200526 61 184 5.0 11.0 0.00 0.12 0.09 59 1011.0
20260903195626 61 183 6.0 9.0 0.00 0.12 0.09 61 1011.1
20260903194726 62 214 4.0 10.0 0.00 0.12 0.09 62 1011.0
20260903193826 60 223 2.0 11.0 0.00 0.12 0.09 67 1011.0
20260903192926 60 210 5.0 10.0 0.00 0.12 0.09 67 1011.1
20260903192038 60 274 6.0 9.0 0.00 0.12 0.09 67 1011.1
20260903191126 60 214 2.0 6.0 0.00 0.12 0.09 64 1011.0
20260903190225 60 201 4.0 8.0 0.00 0.12 0.09 67 1011.0
20260903185326 61 204 4.0 10.0 0.00 0.12 0.09 63 1011.0
20260903184426 61 242 3.0 8.0 0.00 0.12 0.09 68 1010.8
20260903183525 61 219 6.0 9.0 0.00 0.12 0.09 71 1010.9
20260903182626 60 221 4.0 8.0 0.00 0.12 0.09 70 1010.8
20260903181726 60 218 3.0 8.0 0.00 0.12 0.09 68 1010.9
20260903180825 61 212 2.0 6.0 0.00 0.12 0.09 73 1010.7
20260903175926 60 245 2.0 6.0 0.00 0.12 0.09 78 1010.7
20260903175025 59 248 2.0 7.0 0.00 0.12 0.09 83 1010.7
20260903174125 58 204 3.0 5.0 0.00 0.12 0.09 97 1010.7
20260903171426 57 100 2.0 2.0 0.00 0.12 0.09 99 1010.5
20260903170527 57 90 0.0 2.0 0.00 0.12 0.09 99 1010.4
20260903165625 56 91 0.0 2.0 0.00 0.12 0.09 99 1010.4
20260903164725 56 95 1.0 2.0 0.00 0.12 0.09 99 1010.3
20260903163825 56 89 0.0 3.0 0.00 0.12 0.09 99 1010.3
20260903162925 56 65 0.0 2.0 0.00 0.12 0.09 99 1010.3
20260903162025 55 76 0.0 3.0 0.00 0.12 0.09 99 1010.2
20260903161125 55 101 2.0 4.0 0.00 0.13 0.09 99 1010.2
20260903154425 55 108 0.0 2.0 0.02 0.13 0.09 99 1009.8
20260903153525 54 2 0.0 3.0 0.02 0.13 0.09 99 1009.7
20260903152625 54 269 2.0 4.0 0.05 0.14 0.09 99 1009.6
20260903151725 54 167 3.0 5.0 0.05 0.14 0.09 99 1009.6
20260903150825 54 95 1.0 3.0 0.05 0.14 0.09 99 1009.7
20260903144125 54 23 1.0 2.0 0.02 0.22 0.07 99 1009.4
20260903142325 54 1 0.0 2.0 0.00 0.20 0.05 99 1009.3
20260903141425 53 1 1.0 2.0 0.01 0.20 0.05 99 1009.1
20260903140525 53 14 1.0 3.0 0.01 0.20 0.05 99 1009.2
20260903135625 53 20 2.0 3.0 0.01 0.20 0.05 99 1009.0
20260903134725 53 1 2.0 3.0 0.02 0.20 0.05 99 1008.9
20260903133825 53 1 2.0 4.0 0.02 0.20 0.05 99 1008.8
20260903132925 53 1 2.0 3.0 0.02 0.20 0.05 99 1008.8
20260903131125 52 327 2.0 4.0 0.02 0.19 0.04 99 1008.7
20260903130225 52 345 2.0 3.0 0.02 0.19 0.04 99 1008.7
20260903125325 52 355 2.0 4.0 0.01 0.18 0.02 99 1008.7
20260903124425 52 349 2.0 4.0 0.02 0.18 0.02 99 1008.5
20260903123525 52 358 2.0 3.0 0.02 0.18 0.02 99 1008.5
20260903122625 52 345 2.0 3.0 0.02 0.18 0.02 99 1008.6
20260903121725 52 337 2.0 4.0 0.01 0.17 0.01 99 1008.7
20260903115925 53 339 2.0 4.0 0.01 0.17 0.01 99 1008.6